Regional Weather Roundup
Issued by NWS

Home | Current Version | Previous Version | Text Only | Print | Product List | Glossary Off
Versions: 1 2 3 4 5 6 7 8 9 10 11 12 13 14 15 16 17 18 19 20 21 22 23 24 25 26 27 28 29 30 31 32 33 34 35 36 37 38 39 40 41 42 43 44 45 46 47 48 49 50

000
ASUS43 KDTX 270510
RWRMI
MICHIGAN HOURLY REGIONAL WEATHER ROUNDUP
NATIONAL WEATHER SERVICE DETROIT/PONTIAC MI
1200 AM EST MON FEB 27 2017

NOTE: "FAIR" INDICATES FEW OR NO CLOUDS BELOW 12,000 FEET WITH NO
SIGNIFICANT WEATHER AND/OR OBSTRUCTION TO VISIBILITY.

MIZ047>049-052>055-059>063-066>070-074>076-081>083-270600-
SOUTHEAST LOWER MICHIGAN

CITY           SKY/WX    TMP DP  RH WIND       PRES   REMARKS
ADRIAN         CLEAR     33  23  66 SW9       30.10R WCI  25
ALMA           MOCLDY    36  24  62 S12       29.98S WCI  28
ANN ARBOR      CLOUDY    34  22  61 S9        30.07R WCI  27
BAD AXE        PTCLDY    35  23  60 SW7G16    29.97R WCI  29
CARO           PTCLDY    36  24  60 SW12G18   29.97S WCI  28
DETROIT CITY   CLEAR     38  20  48 SW14      30.07R WCI  30
DETROIT        PTCLDY    37  21  52 SW17      30.09R WCI  27
FLINT          MOCLDY    39  22  50 SW13G22   30.01R WCI  31
GROSSE ILE     CLEAR     37  22  53 SW12      30.08S WCI  30
HILLSDALE      CLEAR     34  21  60 SW9       30.06R WCI  26
HOWELL         PTCLDY    38  19  47 SW16G22   30.02R WCI  29

CITY           SKY/WX    TMP DP  RH WIND       PRES   REMARKS
JACKSON        CLOUDY    39  20  46 SW18      30.05R WCI  30
LAMBERTVILLE   CLEAR     38  20  48 SW8       30.11R WCI  33
LANSING        PTCLDY    39  20  46 SW17      30.02R WCI  30
LAPEER         MOCLDY    38  22  51 SW14G20   30.00S WCI  30
MASON          PTCLDY    38  24  57 SW10G16   30.03R WCI  31
MONROE         CLEAR     37  23  57 SW8       30.09R WCI  30
MT. CLEMENS    PTCLDY    39  20  45 SW17G24   30.04R WCI  30
PONTIAC        PTCLDY    38  19  46 SW14      30.02R WCI  30
PORT HOPE        N/A     36  24  62 SW7       29.94R WCI  30
PORT HURON     MOCLDY    37  21  52 SW8G16    30.04R WCI  31
TRI CITIES     CLOUDY    36  24  62 SW12      29.98R WCI  28
MIDLAND        FAIR      34  23  62 SW6       29.96R WCI  29
TROY           CLEAR     38  18  43 SW15G22   30.07R WCI  30
SAGINAW HB     MOCLDY    36  25  64 S13       29.98S WCI  27
$$
MIZ043>046-050>051-056>058-064>065-071>073-077>080-270600-
SOUTHWEST LOWER MICHIGAN

CITY           SKY/WX    TMP DP  RH WIND       PRES   REMARKS
BATTLE CREEK   PTCLDY    37  23  56 SW16      30.04R WCI  28
BENTON HARBOR  CLEAR     40  24  53 SW17G24   30.06R WCI  31
BIG RAPIDS     CLEAR     34  27  76 W12       29.94R WCI  25
COLDWATER      CLOUDY    37  20  50 SW12G17   30.07S WCI  29
FREMONT        FAIR      35  27  72 W6        29.97R WCI  30
HOLLAND        MOCLDY    40  29  64 SW18      30.02R WCI  31
GRAND RAPIDS   FLURRIES  38  23  55 SW8       30.01R WCI  32
IONIA          CLOUDY    37  24  58 SW8       30.00R WCI  31
KALAMAZOO      CLOUDY    39  21  48 SW14      30.05R WCI  31
LUDINGTON      CLEAR     37  31  79 W7        29.96R WCI  31
MARSHALL       MOCLDY    38  22  52 SW13      30.05R WCI  30
MOUNT PLEASANT PTCLDY    32  25  74 CALM      29.96R
MUSKEGON       MOCLDY    40  31  70 SW15      30.00R WCI  32
SOUTH HAVEN    CLOUDY    40  26  56 SW16G24   30.04R WCI  31
$$
MIZ016>042-270600-
NORTHERN LOWER MICHIGAN

CITY           SKY/WX    TMP DP  RH WIND       PRES   REMARKS
ALPENA         LGT SNOW  32  28  85 W10       29.91R FOG     WCI  24
BEAVER ISLAND  CLOUDY    26  18  71 NW10G16   29.94R WCI  17
BELLAIRE       MOCLDY    31  25  77 NW3       29.95R
CADILLAC       CLEAR     29  24  81 SW5       29.91R WCI  24
CHARLEVOIX     CLOUDY    30  20  66 NW14G20   29.97R WCI  19
FRANKFORT      CLOUDY    37  26  65 W10G17    29.95R WCI  29
GAYLORD        CLOUDY    30  22  72 NW9G21    29.88R WCI  22
GRAYLING       FLURRIES  34  28  77 SW7       29.89S WCI  28
HARBOR SPRINGS CLOUDY    29  16  56 W6        29.92R WCI  23
HOUGHTON LAKE  CLEAR     31  23  72 SW9       29.91R WCI  23
MANISTEE       PTCLDY    36  28  73 W15       29.95R WCI  27
OSCODA         CLEAR     32  23  70 SW9       29.92R WCI  24
PELLSTON       MOCLDY    28  18  66 NW13      29.92R WCI  17
ROGERS CITY    MOCLDY    30  24  79 NW10G16   29.91R WCI  21
TRAVERSE CITY  CLOUDY    34  26  72 N9        29.94R WCI  27
$$
MIZ007>008-015-270600-
EASTERN UPPER MICHIGAN

CITY           SKY/WX    TMP DP  RH WIND       PRES   REMARKS
KINROSS        MOCLDY    21  14  74 W14       29.90R WCI   8
MACKINAC ISLAN CLOUDY    26  20  79 NW13G18   29.91R WCI  14
NEWBERRY       MOCLDY    19  11  72 W7        29.91R WCI  10
S. S. MARIE    LGT SNOW  25  16  68 W15G30    29.88R WCI  13
MUNISING         N/A     22  10  60 W6        29.94R WCI  14
$$
MIZ004>006-011>014-085-270600-
CENTRAL UPPER MICHIGAN

CITY           SKY/WX    TMP DP  RH WIND       PRES   REMARKS
MANISTIQUE     CLEAR     18  10  72 W6        29.95R WCI  10
ESCANABA       CLEAR     20  12  71 W6        29.98R WCI  12
MENOMINEE      CLOUDY    29  19  66 N8        29.97R WCI  21
SAWYER-GWINN   CLEAR     14   8  74 W5        29.93R WCI   7
$$
MIZ001>003-009>011-084-270600-
WESTERN UPPER MICHIGAN

CITY           SKY/WX    TMP DP  RH WIND       PRES   REMARKS
IRON MOUNTAIN  CLEAR     16   7  67 W3        29.93R
HOUGHTON       CLEAR     18   6  59 NW14      29.89R WCI   4
COPPER HARBOR    N/A     23  11  60 N17G26    29.91R WCI   9
IRONWOOD       CLEAR      2  -4  76 CALM      29.93S
$$

ABBREVIATIONS USED IN REMARKS
   TC - TEMPERATURE IN CELSIUS
  WCI - WIND CHILL INDEX
   HX - HEAT INDEX
  VSB - VISIBILITY





USA.gov is the U.S. government's official web portal to all federal, state and local government web resources and services.